Terminal Aerodrome Forecast
Issued by NWS Twin Cities, MN

Home | Current Version | Previous Version | Graphics & Text | Print | Product List | Glossary On
Versions: 1 2 3 4 5 6 7 8 9 10 11 12 13 14 15 16 17 18
000
FTUS43 KMPX 241721
TAFEAU
TAF
KEAU 241721Z 2418/2518 14012G22KT P6SM SCT015 BKN150
     FM242300 13008KT P6SM FEW012 OVC090
     FM250400 12007KT 1 1/2SM -SN BR OVC009
      TEMPO 2504/2508 1/2SM SN VV004
     FM251000 16005KT 3SM -SN BR OVC011
     FM251200 22004KT 6SM BR BKN015
     FM251500 25012G20KT P6SM BKN020=

USA.gov is the U.S. government's official web portal to all federal, state and local government web resources and services.